LA/Ontario Airport

Airport
ICAO code: 
KONT
Summary
ICAO Region: 
NAM
Territory: 
Location: 
Ontario, California,
Coordinates: 
Aerial View: 
34° 3' 39.078" N, 117° 35' 53.804" W
Airport BS: 
Bird Strike
Airport WX: 
Fog
Metar
Observation
KONT 020953Z 00000KT 9SM SCT250 12/04 A3009 RMK AO2 SLP179 T01220039
Station
Ontario, Ontario International Airport
Date/Time
2021-12-02 09:53:00
Wind direction
Wind speed
00 kts
Lowest cloud amount
scattered clouds
Temperature
12.2°C
Dew point
3.9°C
Humidity
56%
Weather condition
n/a

Description

International airport 20 nm east of the city of Los Angeles.

Climatology

Mediterranean climate or Dry-Summer Subtropical (Köppen climate classification Csa) - Summers are warm to hot and dry. Winters are mild and somewhat rainy. Spring and autumn bring mild days with cool evenings and are generally dry.

Runways

Designator Length Width Surface Rops
08R/26L 3109 46 CON Yes/Yes
08L/26R 3718 46 PEM Yes/Yes
Airport map: 
Aerial View: 

SKYbrary Partners:

Safety knowledge contributed by: